Date String (YYYY-MM-DD hh:mm:ss) UTC,Instrument flags,Ambient pressure (hPa),Sample flow (lpm),Bypass flow (lpm),Sample temperature (°C),Ambient temperature (°C),ASC tube jacket temperature (°C),LED temperature (°C),Box temperature (°C),Sample RH (%),Span deviation,Mass concentration (μg/m³),Mass concentration (μg/m³),Mass concentration (μg/m³)
DateTimeUTC,F1_M11,P_M11,Q1_M11,Q2_M11,T1_M11,T2_M11,T3_M11,T4_M11,T5_M11,U1_M11,ZSPAN_M11,X0_M11,X2_M11,X1_M11
2022-02-02 20:00:00,,0826.5,5.01,0.00,22.8,23.6,00.0,31.7,24.6,05.5,0000.0,0003.35,0002.07,0001.60
2022-02-02 20:01:00,,0826.5,4.99,0.00,22.8,23.2,00.0,31.7,24.5,05.4,0000.0,0003.83,0002.10,0001.61
2022-02-02 20:02:00,,0826.5,4.99,0.00,22.7,22.9,00.0,31.7,24.3,05.5,0000.0,0003.75,0002.08,0001.61
2022-02-02 20:03:00,,0826.5,5.01,0.00,22.7,22.5,00.0,31.7,24.2,05.6,0000.0,0003.79,0002.09,0001.60
2022-02-02 20:04:00,,0826.5,5.01,0.00,22.6,22.2,00.0,31.7,24.1,05.6,0000.0,0003.79,0002.10,0001.58
2022-02-02 20:05:00,,0826.5,4.99,0.00,22.5,22.0,00.0,31.7,24.0,05.7,0000.0,0003.81,0002.14,0001.58
2022-02-02 20:06:00,,0826.5,5.00,0.00,22.5,22.0,00.0,31.6,23.9,05.8,0000.0,0004.12,0002.16,0001.58
2022-02-02 20:07:00,,0826.5,5.00,0.00,22.6,22.6,00.0,31.6,24.2,05.7,0000.0,0004.42,0002.18,0001.59
2022-02-02 20:08:00,,0826.5,5.00,0.00,22.7,23.4,00.0,31.7,24.5,05.7,0000.0,0004.44,0002.19,0001.59
2022-02-02 20:09:00,,0826.5,5.00,0.00,22.8,23.6,00.0,31.7,24.7,05.6,0000.0,0004.35,0002.19,0001.59
2022-02-02 20:10:00,,0826.4,5.00,0.00,22.8,23.3,00.0,31.7,24.6,05.5,0000.0,0004.31,0002.14,0001.59
2022-02-02 20:11:00,,0826.4,4.99,0.00,22.8,22.9,00.0,31.7,24.4,05.4,0000.0,0004.23,0002.11,0001.59
2022-02-02 20:12:00,,0826.4,5.01,0.00,22.7,22.6,00.0,31.7,24.3,05.4,0000.0,0003.82,0002.10,0001.59
2022-02-02 20:13:00,,0826.3,4.99,0.00,22.7,22.3,00.0,31.7,24.2,05.5,0000.0,0003.91,0002.08,0001.59
2022-02-02 20:14:00,,0826.4,5.01,0.00,22.6,22.1,00.0,31.7,24.1,05.5,0000.0,0004.00,0002.07,0001.60
2022-02-02 20:15:00,,0826.4,4.99,0.00,22.5,21.8,00.0,31.7,24.0,05.5,0000.0,0004.01,0002.08,0001.63
2022-02-02 20:16:00,,0826.3,5.01,0.00,22.5,22.0,00.0,31.7,24.0,05.5,0000.0,0003.95,0002.09,0001.64
2022-02-02 20:17:00,,0826.3,4.99,0.00,22.6,22.8,00.0,31.7,24.3,05.4,0000.0,0003.47,0002.05,0001.65
2022-02-02 20:18:00,,0826.4,5.00,0.00,22.8,23.6,00.0,31.7,24.6,05.4,0000.0,0003.22,0002.03,0001.64
2022-02-02 20:19:00,,0826.4,5.01,0.00,22.8,23.5,00.0,31.7,24.6,05.4,0000.0,0003.25,0002.02,0001.64
2022-02-02 20:20:00,,0826.4,5.00,0.00,22.8,23.1,00.0,31.8,24.5,05.4,0000.0,0003.27,0002.02,0001.64
2022-02-02 20:21:00,,0826.3,4.99,0.00,22.8,22.7,00.0,31.8,24.4,05.4,0000.0,0003.33,0002.07,0001.66
2022-02-02 20:22:00,,0826.3,5.01,0.00,22.7,22.3,00.0,31.7,24.3,05.5,0000.0,0003.77,0002.12,0001.68
2022-02-02 20:23:00,,0826.4,4.99,0.00,22.6,21.8,00.0,31.7,24.2,05.6,0000.0,0004.04,0002.11,0001.68
2022-02-02 20:24:00,,0826.3,5.02,0.00,22.6,21.6,00.0,31.7,24.0,05.7,0000.0,0003.91,0002.11,0001.68
2022-02-02 20:25:00,,0826.3,4.99,0.00,22.5,21.5,00.0,31.7,23.9,05.7,0000.0,0003.81,0002.14,0001.69
2022-02-02 20:26:00,,0826.3,5.01,0.00,22.4,21.7,00.0,31.6,24.0,05.6,0000.0,0004.08,0002.12,0001.68
2022-02-02 20:27:00,,0826.3,5.00,0.00,22.6,22.6,00.0,31.7,24.3,05.5,0000.0,0004.18,0002.11,0001.67
2022-02-02 20:28:00,,0826.4,4.99,0.00,22.7,23.4,00.0,31.7,24.6,05.5,0000.0,0004.31,0002.13,0001.67
2022-02-02 20:29:00,,0826.3,5.00,0.00,22.8,23.4,00.0,31.7,24.6,05.5,0000.0,0004.71,0002.11,0001.67
2022-02-02 20:30:00,,0826.3,5.00,0.00,22.8,23.1,00.0,31.7,24.6,05.5,0000.0,0004.84,0002.13,0001.68
2022-02-02 20:31:00,,0826.3,5.01,0.00,22.8,22.8,00.0,31.7,24.4,05.4,0000.0,0004.93,0002.16,0001.68
2022-02-02 20:32:00,,0826.3,5.00,0.00,22.7,22.5,00.0,31.7,24.3,05.4,0000.0,0004.99,0002.18,0001.66
2022-02-02 20:33:00,,0826.3,5.00,0.00,22.6,22.2,00.0,31.7,24.1,05.4,0000.0,0004.63,0002.12,0001.65
2022-02-02 20:34:00,,0826.3,5.01,0.00,22.6,22.0,00.0,31.7,24.0,05.5,0000.0,0004.30,0002.12,0001.63
2022-02-02 20:35:00,,0826.3,4.99,0.00,22.5,21.8,00.0,31.6,23.9,05.5,0000.0,0004.52,0002.13,0001.63
2022-02-02 20:36:00,,0826.3,5.01,0.00,22.5,22.3,00.0,31.6,24.1,05.5,0000.0,0004.45,0002.08,0001.61
2022-02-02 20:37:00,,0826.3,5.00,0.00,22.6,23.1,00.0,31.7,24.4,05.5,0000.0,0004.39,0002.07,0001.60
2022-02-02 20:38:00,,0826.3,5.00,0.00,22.8,23.6,00.0,31.7,24.6,05.5,0000.0,0004.48,0002.08,0001.60
2022-02-02 20:39:00,,0826.3,5.00,0.00,22.8,23.4,00.0,31.7,24.6,05.5,0000.0,0005.46,0002.08,0001.59
2022-02-02 20:40:00,,0826.2,5.00,0.00,22.8,23.0,00.0,31.7,24.5,05.5,0000.0,0005.49,0002.13,0001.58
2022-02-02 20:41:00,,0826.2,5.00,0.00,22.7,22.7,00.0,31.7,24.3,05.6,0000.0,0005.27,0002.10,0001.56
2022-02-02 20:42:00,,0826.2,5.01,0.00,22.7,22.3,00.0,31.7,24.2,05.6,0000.0,0005.18,0002.06,0001.55
2022-02-02 20:43:00,,0826.2,4.98,0.00,22.6,22.0,00.0,31.7,24.1,05.7,0000.0,0004.93,0001.99,0001.55
2022-02-02 20:44:00,,0826.2,5.01,0.00,22.5,21.8,00.0,31.7,24.0,05.6,0000.0,0004.90,0001.97,0001.56
2022-02-02 20:45:00,,0826.3,5.00,0.00,22.5,21.8,00.0,31.6,23.9,05.6,0000.0,0004.79,0001.97,0001.56
2022-02-02 20:46:00,,0826.3,5.00,0.00,22.5,22.5,00.0,31.7,24.2,05.6,0000.0,0004.59,0001.95,0001.56
2022-02-02 20:47:00,,0826.3,5.01,0.00,22.7,23.3,00.0,31.7,24.5,05.5,0000.0,0004.52,0001.95,0001.55
2022-02-02 20:48:00,,0826.3,4.98,0.00,22.8,23.6,00.0,31.7,24.7,05.5,0000.0,0004.41,0001.93,0001.54
2022-02-02 20:49:00,,0826.2,5.01,0.00,22.8,23.2,00.0,31.7,24.6,05.6,0000.0,0004.30,0001.89,0001.53
2022-02-02 20:50:00,,0826.2,5.00,0.00,22.8,22.9,00.0,31.7,24.4,05.6,0000.0,0003.38,0001.90,0001.53
2022-02-02 20:51:00,,0826.2,4.99,0.00,22.7,22.6,00.0,31.7,24.3,05.6,0000.0,0003.43,0001.89,0001.53
2022-02-02 20:52:00,,0826.3,5.01,0.00,22.7,22.3,00.0,31.7,24.2,05.7,0000.0,0003.32,0001.89,0001.52
2022-02-02 20:53:00,,0826.3,4.99,0.00,22.6,22.1,00.0,31.7,24.1,05.7,0000.0,0003.39,0001.90,0001.51
2022-02-02 20:54:00,,0826.2,5.02,0.00,22.5,21.9,00.0,31.7,24.0,05.7,0000.0,0003.62,0001.91,0001.50
2022-02-02 20:55:00,,0826.3,5.00,0.00,22.5,22.1,00.0,31.7,24.1,05.7,0000.0,0003.84,0001.93,0001.49
2022-02-02 20:56:00,,0826.3,5.00,0.00,22.6,22.9,00.0,31.7,24.3,05.6,0000.0,0003.76,0001.89,0001.47
2022-02-02 20:57:00,,0826.3,4.99,0.00,22.8,23.6,00.0,31.7,24.6,05.5,0000.0,0003.79,0001.90,0001.46
2022-02-02 20:58:00,,0826.3,5.00,0.00,22.9,23.5,00.0,31.7,24.7,05.4,0000.0,0003.77,0001.88,0001.47
2022-02-02 20:59:00,,0826.4,5.00,0.00,22.8,23.1,00.0,31.7,24.5,05.4,0000.0,0003.94,0001.95,0001.47
